sat.trackr.live / text

‹ back to catalog

STARLINK-4464

NORAD 53669 · 2022-105X

PAYLOAD ACTIVE UNKNOWN

§ Identity

Operator
Country
US
Launch date
2022-08-31
Launch site
AFWTR
Launch vehicle
Mass (kg)
RCS (m²)

Purposes: comms

External: N2YO · Heavens-Above · Gunter

§ Orbital elements

Epoch: 2026-05-25T04:00:03.998880Z

Period
93.64 min
Inclination
97.6045°
Eccentricity
0.0001837
Mean motion
15.37798963 rev/d
Perigee alt
451.4 km
Apogee alt
453.9 km
Semi-major
6,830.8 km
B*
2.2982e-3
RAAN
27.0460°
Arg perigee
73.2609°
Mean anomaly
62.8671°
Rev number
587

§ Raw data

STARLINK-44641 53669U 22105X   26145.16671295  .00086130  00000+0  22982-2 0  99962 53669  97.6045  27.0460 0001837  73.2609  62.8671 15.37798963  5875

JSON: /api/v1/satellites/53669 · /tle

For live sub-satellite position, see the globe view (requires WebGL).

§ Visibility from observer

Set your observer location to see the next 7 days of passes ≥ 10°. The values pass through the URL so the page stays shareable.

No JS? Fill the form by hand. The geolocation button needs JavaScript.